Find Starlink 31722

NORAD ID: 59549 Int'l Des: 2024-074 Owner: SPXS Country: US Constellation: starlink operational
LEOCIRCULAR

現在のビュー

3D地球を読み込み中...

About Starlink 31722

Starlink 31722 (NORAD 59549) is a starlink constellation satellite (v2 mini) launched Apr 18, 2024 by SPXS of US. It operates in LEO, CIRCULAR orbit with a mass of 730.00 kg.

次回通過

Passes for default location (London). Set your location on the main map for personalized predictions.

高度履歴

Loading altitude history...

軌道要素

1 59549U 24074R 26252.06286101 -.00000860 00000-0 -21707-4 0 9997
2 59549 43.0028 27.5170 0001554 266.6706 93.3968 15.27594674134063
Epoch: Sep 9, 2026 • Age: 9 hours

現在のステータス

高度 492.7 km
遠地点 / 近地点 N/A
速度 7.62 km/s
衛星直下点 -36.53°S, 175.23°W
打ち上げ日 Apr 18, 2024
運用期間 2.3 years
タイプ internet

技術仕様

分類 Payload
質量 730.00 kg
乾燥質量 700.00 kg
総質量 730.00 kg
長さ 0.30 m
直径 4.10 m
スパン 29.00 m
形状 Box + pan
製造者 SPXS
バスタイプ Starlink V2M
フェーズステータス In Orbit
所有者/国 SPXS/US

Most Searched